User: anonymous   Login
Location: Banska Bystrica
(48.7330°N, 19.1500°E)
Time: 00:54:17
(UTC+02:00)
Language:

Tiangong 2 - Orbit

View from above orbital plane
View from above orbital plane
View from above satellite
View from above satellite

Ground track
Ground track

The orbit data is extracted from the following two-line orbital elements,

1 41765U 16057A   19168.78628472  .00002890  00000-0  36873-4 0  9991
2 41765  42.7841 323.2183 0009012 271.9974 307.4430 15.61746516157134
Epoch (UTC): 17 June 2019 18:52:15
Eccentricity: 0.0009012
inclination: 42.7841°
perigee height: 376 km
apogee height: 389 km
right ascension of ascending node: 323.2183°
argument of perigee: 271.9974°
revolutions per day: 15.61746516
mean anomaly at epoch: 307.4430°
orbit number at epoch: 15713

The dashed part of the orbit path shows where the satellite is in the earth's shadow,  

DLR